Location: Recife
(8.0585°S, 34.8848°W)
Time: 13:53:47
(UTC-03:00)

Tiros 1 despin weight - Pass Details

Date: 18 April 2026
Orbit: 555 x 591 km, 48.2° (Epoch: 14 May)

Event Time Altitude Azimuth Distance (km) Brightness Sun altitude
Rises 11:33:11 0° 228° (SW) 2,734 ? 70.6°
Reaches altitude 10° 11:35:29 10° 233° (SW) 1,834 ? 70.5°
Maximum altitude 11:39:33 51° 309° (NW) 702 ? 70.3°
Drops below altitude 10° 11:43:35 10° 25° (NNE) 1,823 ? 70.0°
Sets 11:45:52 0° 30° (NNE) 2,716 ? 69.8°
